Find Starlink 31462

NORAD ID: 59466 Int'l Des: 2024-068 Owner: SPXS Country: US Constellation: starlink operational
LEOCIRCULAR

現在のビュー

3D地球を読み込み中...

About Starlink 31462

Starlink 31462 (NORAD 59466) is a starlink constellation satellite (v2 mini) launched Apr 10, 2024 by SPXS of US. It operates in LEO, CIRCULAR orbit with a mass of 730.00 kg.

次回通過

Passes for default location (London). Set your location on the main map for personalized predictions.

高度履歴

Loading altitude history...

軌道要素

1 59466U 24068M 26262.62612514 .00004298 00000-0 16571-3 0 9991
2 59466 43.0025 19.1783 0001122 272.9604 87.1119 15.27558056138183
Epoch: Sep 19, 2026 • Age: 26 hours

現在のステータス

高度 485.3 km
遠地点 / 近地点 N/A
速度 7.63 km/s
衛星直下点 35.08°N, 105°W
打ち上げ日 Apr 10, 2024
運用期間 2.4 years
タイプ internet

技術仕様

分類 Payload
質量 730.00 kg
乾燥質量 700.00 kg
長さ 0.30 m
スパン 29.00 m
形状 ? Box + pan
製造者 SPXS
バスタイプ Starlink V2M
フェーズステータス In Orbit
所有者/国 SPXS/US

Most Searched